This is the latest recevied weather packets stored in our database for station/object N2XP-3. If no packets are shown the sender has not sent any weather packets the latest 10 day(s).
| Time | Temp. | Humidity | Pressure | Rain* | Wind** | Luminosity | Snow |
|---|---|---|---|---|---|---|---|
| 1777796373 | 6.11° C | 65% | 1008.4 hPa | 0 mm | 0.45 m/s, 104° | - | - |
| 1777796072 | 6.11° C | 65% | 1008.4 hPa | 0 mm | 2.68 m/s, 60° | - | - |
| 1777795965 | 6.11° C | 65% | 1008.3 hPa | 0 mm | 0 m/s | - | - |
| 1777795773 | 6.11° C | 65% | 1008.3 hPa | 0 mm | 0 m/s | - | - |
| 1777795463 | 6.11° C | 65% | 1008.3 hPa | 0 mm | 1.79 m/s, 120° | - | - |
| 1777795017 | 6.11° C | 65% | 1008.2 hPa | 0 mm | 0.89 m/s, 125° | - | - |
| 1777794416 | 6.11° C | 65% | 1008.2 hPa | 0 mm | 0 m/s | - | - |
| 1777794263 | 6.11° C | 65% | 1008.2 hPa | 0 mm | 0 m/s | - | - |
| 1777793962 | 6.11° C | 65% | 1008.1 hPa | 0 mm | 1.34 m/s, 194° | - | - |
| 1777793865 | 6.11° C | 64% | 1008.1 hPa | 0 mm | 1.79 m/s, 330° | - | - |
| 1777793651 | 6.11° C | 64% | 1008.1 hPa | 0 mm | 1.79 m/s, 330° | - | - |
| 1777793526 | 6.11° C | 64% | 1008.1 hPa | 0 mm | 1.79 m/s, 153° | - | - |
| 1777793352 | 6.11° C | 64% | 1008.1 hPa | 0 mm | 1.79 m/s, 153° | - | - |
| 1777793050 | 6.11° C | 65% | 1008.1 hPa | 0 mm | 2.24 m/s, 158° | - | - |
| 1777792867 | 6.11° C | 66% | 1008.2 hPa | 0 mm | 1.34 m/s, 146° | - | - |
| 1777792741 | 6.11° C | 66% | 1008.2 hPa | 0 mm | 1.34 m/s, 146° | - | - |
| 1777792621 | 6.67° C | 66% | 1008.2 hPa | 0 mm | 0.45 m/s, 170° | - | - |
| 1777792438 | 6.67° C | 66% | 1008.2 hPa | 0 mm | 0.45 m/s, 170° | - | - |
| 1777792044 | 6.67° C | 66% | 1008.2 hPa | 0 mm | 0 m/s | - | - |
| 1777791827 | 6.67° C | 66% | 1008.2 hPa | 0 mm | 0 m/s | - | - |
| 1777791080 | 6.67° C | 65% | 1008 hPa | 0 mm | 1.79 m/s, 120° | - | - |
| 1777790924 | 6.67° C | 65% | 1008 hPa | 0 mm | 1.79 m/s, 120° | - | - |
| 1777790536 | 6.67° C | 65% | 1007.9 hPa | 0 mm | 0.45 m/s, 134° | - | - |
| 1777790325 | 6.67° C | 65% | 1007.9 hPa | 0 mm | 0.45 m/s, 134° | - | - |
| 1777790016 | 6.67° C | 65% | 1008 hPa | 0 mm | 1.79 m/s, 148° | - | - |
* Rain latest hour (hover to see other rain measurements)
** Current wind speed in m/s (hover to see current wind gust speed)